UAL333 KSLC-KDEN

Flight info

Callsign UAL333
Flight time 1h 3m
Altitude 35000
Route RUGGD3 PERTY KAMPR LONGZ4
Aircraft A319/M-SDE3FGHIRWY/LB1

Departure

Time 2026-05-06 01:13
Airport Salt Lake City International Airport (KSLC)

Arrival

Time 2026-05-06 02:16
Airport Denver International Airport (KDEN)
Time Latitude Longitude Altitude Speed Heading
2026-05-06 00:58 40.78832 -111.98768 4231 ft 0 kts
2026-05-06 00:59 40.78827 -111.98768 4231 ft 3 kts
2026-05-06 01:00 40.78800 -111.98772 4231 ft 4 kts
2026-05-06 01:00 40.78779 -111.98774 4231 ft 4 kts 22°
2026-05-06 01:00 40.78763 -111.98792 4231 ft 4 kts 50°
2026-05-06 01:00 40.78758 -111.98800 4231 ft 0 kts 50°
2026-05-06 01:05 40.78760 -111.98798 4231 ft 1 kts 50°
2026-05-06 01:05 40.78763 -111.98787 4231 ft 2 kts 72°
2026-05-06 01:05 40.78761 -111.98770 4231 ft 2 kts 103°
2026-05-06 01:05 40.78758 -111.98742 4231 ft 4 kts 95°
2026-05-06 01:06 40.78760 -111.98701 4231 ft 5 kts 83°
2026-05-06 01:06 40.78765 -111.98648 4231 ft 7 kts 83°
2026-05-06 01:06 40.78770 -111.98579 4231 ft 8 kts 84°
2026-05-06 01:06 40.78777 -111.98496 4231 ft 10 kts 84°
2026-05-06 01:07 40.78785 -111.98394 4231 ft 12 kts 84°
2026-05-06 01:07 40.78794 -111.98277 4231 ft 14 kts 84°
2026-05-06 01:07 40.78801 -111.98146 4231 ft 15 kts 85°
2026-05-06 01:07 40.78811 -111.98002 4231 ft 16 kts 85°
2026-05-06 01:08 40.78828 -111.97847 4231 ft 18 kts 79°
2026-05-06 01:08 40.78871 -111.97704 4231 ft 17 kts 24°
2026-05-06 01:08 40.78989 -111.97710 4231 ft 18 kts 354°
2026-05-06 01:08 40.79118 -111.97725 4231 ft 19 kts 355°
2026-05-06 01:09 40.79258 -111.97742 4231 ft 21 kts 355°
2026-05-06 01:09 40.79406 -111.97759 4231 ft 22 kts 355°
2026-05-06 01:09 40.79563 -111.97778 4230 ft 23 kts 354°
2026-05-06 01:09 40.79729 -111.97794 4230 ft 24 kts 356°
2026-05-06 01:10 40.79902 -111.97815 4231 ft 25 kts 354°
2026-05-06 01:10 40.80066 -111.97834 4231 ft 20 kts 355°
2026-05-06 01:10 40.80212 -111.97850 4231 ft 22 kts 356°
2026-05-06 01:10 40.80357 -111.97822 4231 ft 19 kts
2026-05-06 01:11 40.80491 -111.97832 4231 ft 20 kts 355°
2026-05-06 01:11 40.80636 -111.97849 4231 ft 22 kts 354°
2026-05-06 01:11 40.80734 -111.97850 4230 ft 9 kts 35°
2026-05-06 01:11 40.80742 -111.97755 4229 ft 14 kts 108°
2026-05-06 01:12 40.80656 -111.97686 4229 ft 18 kts 178°
2026-05-06 01:12 40.80506 -111.97671 4232 ft 34 kts 174°
2026-05-06 01:12 40.80055 -111.97618 4232 ft 94 kts 175°
2026-05-06 01:12 40.79227 -111.97519 4231 ft 144 kts 175°
2026-05-06 01:13 40.78102 -111.97383 4399 ft 171 kts 174°
2026-05-06 01:13 40.76914 -111.97407 4962 ft 174 kts 191°
2026-05-06 01:13 40.75805 -111.98085 5478 ft 183 kts 218°
2026-05-06 01:13 40.75039 -111.99472 5931 ft 196 kts 248°
2026-05-06 01:14 40.75762 -112.03277 6390 ft 256 kts 306°
2026-05-06 01:14 40.76880 -112.05226 6988 ft 274 kts 306°
2026-05-06 01:14 40.78056 -112.07260 7837 ft 282 kts 306°
2026-05-06 01:15 40.79231 -112.09346 8778 ft 284 kts 306°
2026-05-06 01:15 40.80416 -112.11433 9742 ft 286 kts 307°
2026-05-06 01:15 40.81666 -112.13504 9942 ft 288 kts 317°
2026-05-06 01:15 40.83422 -112.14839 10244 ft 305 kts 343°
2026-05-06 01:16 40.85598 -112.15153 10607 ft 324 kts 360°
2026-05-06 01:16 40.87875 -112.15087 11328 ft 329 kts
2026-05-06 01:16 40.90165 -112.14937 12131 ft 332 kts
2026-05-06 01:16 40.92374 -112.13992 12939 ft 338 kts 26°
2026-05-06 01:17 40.94217 -112.12033 13689 ft 347 kts 47°
2026-05-06 01:17 40.95406 -112.09219 14392 ft 358 kts 69°
2026-05-06 01:17 40.95704 -112.05914 15072 ft 370 kts 90°
2026-05-06 01:17 40.95478 -112.02512 15758 ft 373 kts 93°
2026-05-06 01:18 40.95226 -111.99077 16398 ft 377 kts 92°
2026-05-06 01:18 40.94969 -111.95602 17005 ft 382 kts 92°
2026-05-06 01:18 40.94712 -111.92074 17609 ft 386 kts 92°
2026-05-06 01:18 40.94460 -111.88516 18201 ft 391 kts 92°
2026-05-06 01:19 40.94210 -111.84914 18829 ft 395 kts 92°
2026-05-06 01:19 40.93960 -111.81279 19410 ft 399 kts 92°
2026-05-06 01:19 40.93702 -111.77607 19994 ft 403 kts 92°
2026-05-06 01:19 40.93437 -111.73912 20574 ft 406 kts 92°
2026-05-06 01:20 40.93166 -111.70178 21138 ft 409 kts 92°
2026-05-06 01:20 40.92893 -111.66421 21690 ft 413 kts 93°
2026-05-06 01:20 40.92616 -111.62623 22234 ft 416 kts 93°
2026-05-06 01:20 40.92338 -111.58807 22751 ft 419 kts 93°
2026-05-06 01:21 40.92151 -111.56255 23082 ft 422 kts 93°
2026-05-06 01:21 40.91869 -111.52379 23573 ft 425 kts 93°
2026-05-06 01:21 40.91583 -111.48471 24055 ft 429 kts 93°
2026-05-06 01:21 40.91293 -111.44537 24520 ft 432 kts 93°
2026-05-06 01:22 40.90895 -111.39283 25156 ft 435 kts 94°
2026-05-06 01:22 40.90648 -111.36600 25483 ft 437 kts 95°
2026-05-06 01:22 40.90213 -111.32618 25944 ft 439 kts 95°
2026-05-06 01:22 40.89722 -111.28622 26396 ft 441 kts 96°
2026-05-06 01:23 40.89204 -111.24613 26830 ft 444 kts 96°
2026-05-06 01:23 40.88682 -111.20582 27265 ft 446 kts 95°
2026-05-06 01:23 40.88172 -111.16532 27689 ft 448 kts 95°
2026-05-06 01:23 40.87674 -111.12451 28109 ft 451 kts 94°
2026-05-06 01:24 40.87185 -111.08357 28532 ft 452 kts 94°
2026-05-06 01:24 40.86696 -111.04241 28928 ft 454 kts 94°
2026-05-06 01:24 40.86205 -111.00107 29300 ft 457 kts 93°
2026-05-06 01:24 40.85709 -110.95953 29695 ft 458 kts 93°
2026-05-06 01:25 40.85209 -110.91793 30044 ft 460 kts 93°
2026-05-06 01:25 40.84704 -110.87613 30370 ft 463 kts 93°
2026-05-06 01:25 40.84190 -110.83402 30694 ft 465 kts 93°
2026-05-06 01:25 40.83674 -110.79180 31009 ft 467 kts 93°
2026-05-06 01:26 40.83152 -110.74938 31283 ft 470 kts 93°
2026-05-06 01:26 40.82628 -110.70669 31583 ft 472 kts 93°
2026-05-06 01:26 40.82098 -110.66391 31924 ft 472 kts 94°
2026-05-06 01:26 40.81565 -110.62121 32368 ft 471 kts 93°
2026-05-06 01:27 40.81043 -110.57920 32787 ft 470 kts 93°
2026-05-06 01:27 40.80515 -110.53672 33199 ft 469 kts 93°
2026-05-06 01:27 40.79978 -110.49372 33583 ft 468 kts 93°
2026-05-06 01:27 40.79455 -110.45190 33977 ft 468 kts 94°
2026-05-06 01:28 40.78922 -110.40964 34381 ft 467 kts 93°
2026-05-06 01:28 40.78389 -110.36742 34761 ft 467 kts 94°
2026-05-06 01:28 40.77857 -110.32514 34909 ft 467 kts 94°
2026-05-06 01:28 40.77323 -110.28315 34938 ft 463 kts 95°
2026-05-06 01:29 40.76255 -110.19972 34932 ft 460 kts 95°
2026-05-06 01:29 40.75189 -110.11653 34933 ft 460 kts 95°
2026-05-06 01:30 40.74134 -110.03335 34935 ft 459 kts 93°
2026-05-06 01:30 40.73464 -109.95000 34923 ft 456 kts 90°
2026-05-06 01:31 40.73046 -109.86652 34905 ft 457 kts 89°
2026-05-06 01:31 40.72572 -109.78272 34906 ft 459 kts 90°
2026-05-06 01:32 40.71988 -109.69878 34908 ft 461 kts 91°
2026-05-06 01:32 40.71371 -109.61463 34911 ft 461 kts 91°
2026-05-06 01:33 40.70769 -109.53041 34912 ft 462 kts 91°
2026-05-06 01:33 40.70184 -109.44609 34912 ft 462 kts 91°
2026-05-06 01:34 40.69595 -109.36176 34911 ft 463 kts 91°
2026-05-06 01:34 40.68986 -109.27717 34908 ft 463 kts 91°
2026-05-06 01:35 40.68368 -109.19253 34909 ft 464 kts 92°
2026-05-06 01:35 40.67736 -109.10776 34909 ft 465 kts 92°
2026-05-06 01:36 40.67104 -109.02285 34909 ft 466 kts 92°
2026-05-06 01:36 40.66554 -108.93772 34907 ft 467 kts 91°
2026-05-06 01:37 40.66040 -108.85244 34908 ft 468 kts 91°
2026-05-06 01:37 40.65498 -108.76701 34914 ft 468 kts 92°
2026-05-06 01:38 40.64932 -108.68150 34921 ft 469 kts 92°
2026-05-06 01:38 40.64358 -108.59652 34931 ft 470 kts 92°
2026-05-06 01:39 40.63778 -108.51030 34934 ft 470 kts 92°
2026-05-06 01:39 40.63191 -108.42459 34937 ft 470 kts 93°
2026-05-06 01:40 40.62602 -108.33864 34939 ft 472 kts 93°
2026-05-06 01:40 40.62005 -108.25324 34946 ft 472 kts 93°
2026-05-06 01:41 40.61394 -108.16727 34946 ft 472 kts 94°
2026-05-06 01:41 40.60776 -108.08065 34945 ft 472 kts 94°
2026-05-06 01:42 40.60185 -107.99701 34944 ft 472 kts 94°
2026-05-06 01:42 40.59567 -107.91102 34940 ft 473 kts 95°
2026-05-06 01:43 40.58926 -107.82402 34627 ft 487 kts 95°
2026-05-06 01:43 40.58592 -107.77964 34352 ft 489 kts 95°
2026-05-06 01:43 40.58256 -107.73516 34076 ft 487 kts 95°
2026-05-06 01:44 40.57927 -107.69149 33804 ft 485 kts 94°
2026-05-06 01:44 40.57594 -107.64749 33527 ft 483 kts 95°
2026-05-06 01:44 40.57265 -107.60366 33251 ft 480 kts 95°
2026-05-06 01:44 40.56938 -107.56012 32976 ft 478 kts 95°
2026-05-06 01:45 40.56612 -107.51669 32695 ft 476 kts 95°
2026-05-06 01:45 40.56285 -107.47344 32426 ft 475 kts 95°
2026-05-06 01:45 40.55956 -107.43034 32151 ft 473 kts 95°
2026-05-06 01:45 40.55629 -107.38741 31874 ft 471 kts 95°
2026-05-06 01:46 40.55301 -107.34466 31601 ft 469 kts 96°
2026-05-06 01:46 40.54971 -107.30207 31323 ft 467 kts 96°
2026-05-06 01:46 40.54639 -107.25969 31046 ft 465 kts 96°
2026-05-06 01:46 40.54309 -107.21753 30770 ft 463 kts 96°
2026-05-06 01:47 40.53980 -107.17555 30496 ft 461 kts 96°
2026-05-06 01:47 40.53650 -107.13372 30219 ft 459 kts 96°
2026-05-06 01:47 40.53321 -107.09205 29943 ft 457 kts 97°
2026-05-06 01:47 40.52994 -107.05060 29669 ft 456 kts 97°
2026-05-06 01:48 40.52666 -107.00925 29392 ft 454 kts 97°
2026-05-06 01:48 40.52336 -106.96809 29117 ft 452 kts 97°
2026-05-06 01:48 40.52001 -106.92708 28914 ft 451 kts 97°
2026-05-06 01:48 40.51664 -106.88611 28953 ft 451 kts 97°
2026-05-06 01:49 40.50992 -106.80395 28952 ft 452 kts 97°
2026-05-06 01:49 40.50322 -106.72183 28952 ft 452 kts 97°
2026-05-06 01:50 40.49645 -106.63975 28950 ft 451 kts 98°
2026-05-06 01:50 40.48952 -106.55788 28971 ft 451 kts 98°
2026-05-06 01:51 40.48244 -106.47612 28959 ft 450 kts 98°
2026-05-06 01:51 40.47516 -106.39454 28960 ft 449 kts 98°
2026-05-06 01:52 40.46775 -106.31313 28888 ft 447 kts 98°
2026-05-06 01:52 40.46407 -106.27270 28380 ft 445 kts 98°
2026-05-06 01:52 40.46041 -106.23245 27885 ft 442 kts 99°
2026-05-06 01:53 40.45674 -106.19253 27417 ft 438 kts 99°
2026-05-06 01:53 40.45309 -106.15293 26934 ft 435 kts 99°
2026-05-06 01:53 40.44956 -106.11352 26631 ft 435 kts 98°
2026-05-06 01:53 40.44612 -106.07403 26313 ft 435 kts 98°
2026-05-06 01:54 40.44276 -106.03464 25993 ft 433 kts 98°
2026-05-06 01:54 40.43941 -105.99547 25674 ft 432 kts 98°
2026-05-06 01:54 40.43601 -105.95635 25358 ft 431 kts 99°
2026-05-06 01:54 40.43254 -105.91728 25047 ft 430 kts 99°
2026-05-06 01:55 40.42827 -105.87851 24680 ft 429 kts 102°
2026-05-06 01:55 40.42277 -105.84016 24278 ft 426 kts 104°
2026-05-06 01:55 40.41652 -105.80227 23879 ft 425 kts 105°
2026-05-06 01:55 40.41000 -105.76464 23486 ft 422 kts 106°
2026-05-06 01:56 40.40350 -105.72716 23107 ft 420 kts 105°
2026-05-06 01:56 40.39720 -105.68990 22713 ft 417 kts 105°
2026-05-06 01:56 40.39108 -105.65275 22340 ft 416 kts 104°
2026-05-06 01:56 40.38512 -105.61563 21943 ft 415 kts 104°
2026-05-06 01:57 40.37927 -105.57860 21384 ft 415 kts 104°
2026-05-06 01:57 40.37343 -105.54158 20864 ft 413 kts 104°
2026-05-06 01:57 40.36762 -105.50478 20333 ft 411 kts 104°
2026-05-06 01:57 40.36179 -105.46823 19821 ft 408 kts 104°
2026-05-06 01:58 40.35590 -105.43188 19305 ft 407 kts 104°
2026-05-06 01:58 40.34987 -105.39623 19128 ft 391 kts 108°
2026-05-06 01:58 40.34052 -105.36370 18841 ft 374 kts 120°
2026-05-06 01:58 40.32703 -105.33531 18479 ft 362 kts 133°
2026-05-06 01:59 40.31150 -105.30952 18228 ft 359 kts 133°
2026-05-06 01:59 40.29613 -105.28375 17974 ft 359 kts 133°
2026-05-06 01:59 40.28090 -105.25793 17720 ft 357 kts 132°
2026-05-06 01:59 40.26576 -105.23219 17469 ft 356 kts 132°
2026-05-06 02:00 40.25067 -105.20660 17215 ft 353 kts 132°
2026-05-06 02:00 40.23572 -105.18126 16956 ft 350 kts 132°
2026-05-06 02:00 40.22087 -105.15616 16716 ft 347 kts 131°
2026-05-06 02:00 40.20611 -105.13129 16468 ft 345 kts 131°
2026-05-06 02:01 40.19143 -105.10664 16216 ft 342 kts 131°
2026-05-06 02:01 40.17685 -105.08220 15968 ft 340 kts 131°
2026-05-06 02:01 40.16236 -105.05792 15719 ft 337 kts 131°
2026-05-06 02:01 40.14798 -105.03387 15467 ft 334 kts 132°
2026-05-06 02:02 40.13222 -105.01197 15215 ft 330 kts 139°
2026-05-06 02:02 40.11594 -104.99105 14961 ft 327 kts 139°
2026-05-06 02:02 40.09981 -104.97026 14706 ft 324 kts 138°
2026-05-06 02:02 40.08379 -104.94964 14456 ft 323 kts 138°
2026-05-06 02:03 40.06787 -104.92917 14206 ft 320 kts 138°
2026-05-06 02:03 40.05209 -104.90888 13956 ft 318 kts 137°
2026-05-06 02:03 40.03639 -104.88864 13703 ft 316 kts 138°
2026-05-06 02:03 40.02085 -104.86859 13455 ft 313 kts 137°
2026-05-06 02:04 40.00541 -104.84872 13203 ft 310 kts 137°
2026-05-06 02:04 39.98978 -104.82954 12943 ft 307 kts 144°
2026-05-06 02:04 39.97168 -104.81513 12695 ft 303 kts 158°
2026-05-06 02:04 39.95182 -104.80699 12447 ft 298 kts 171°
2026-05-06 02:05 39.93136 -104.80512 12194 ft 294 kts 183°
2026-05-06 02:05 39.91087 -104.80581 11945 ft 294 kts 182°
2026-05-06 02:05 39.89043 -104.80638 11694 ft 294 kts 182°
2026-05-06 02:05 39.87005 -104.80689 11443 ft 293 kts 181°
2026-05-06 02:06 39.84984 -104.80737 11289 ft 286 kts 181°
2026-05-06 02:06 39.83032 -104.80784 11223 ft 274 kts 181°
2026-05-06 02:06 39.81162 -104.80833 11144 ft 264 kts 181°
2026-05-06 02:06 39.79351 -104.80879 11041 ft 256 kts 181°
2026-05-06 02:07 39.77601 -104.80920 10929 ft 249 kts 181°
2026-05-06 02:07 39.75872 -104.80965 10848 ft 247 kts 181°
2026-05-06 02:07 39.74159 -104.81004 10739 ft 246 kts 181°
2026-05-06 02:07 39.72446 -104.81048 10637 ft 246 kts 181°
2026-05-06 02:08 39.70735 -104.81094 10530 ft 245 kts 181°
2026-05-06 02:08 39.69032 -104.81146 10241 ft 245 kts 181°
2026-05-06 02:08 39.67333 -104.81199 9976 ft 244 kts 181°
2026-05-06 02:08 39.65645 -104.81254 9725 ft 241 kts 181°
2026-05-06 02:09 39.63979 -104.81183 9436 ft 239 kts 165°
2026-05-06 02:09 39.62576 -104.80169 9272 ft 229 kts 131°
2026-05-06 02:09 39.61861 -104.78419 9146 ft 215 kts 102°
2026-05-06 02:09 39.61617 -104.76563 9048 ft 206 kts 94°
2026-05-06 02:10 39.61543 -104.75343 8995 ft 203 kts 91°
2026-05-06 02:10 39.61522 -104.73517 8996 ft 200 kts 89°
2026-05-06 02:10 39.61811 -104.71811 8995 ft 194 kts 57°
2026-05-06 02:10 39.62790 -104.70639 9000 ft 193 kts 32°
2026-05-06 02:11 39.63953 -104.69789 9001 ft 192 kts 28°
2026-05-06 02:11 39.65164 -104.69067 8992 ft 192 kts 13°
2026-05-06 02:11 39.66500 -104.68941 9001 ft 194 kts
2026-05-06 02:11 39.67851 -104.68931 8901 ft 194 kts
2026-05-06 02:12 39.69201 -104.68919 8690 ft 194 kts
2026-05-06 02:12 39.70538 -104.68904 8442 ft 191 kts
2026-05-06 02:12 39.71853 -104.68889 8194 ft 187 kts
2026-05-06 02:12 39.73149 -104.68873 7993 ft 184 kts
2026-05-06 02:13 39.74436 -104.68858 7711 ft 184 kts
2026-05-06 02:13 39.75712 -104.68844 7455 ft 181 kts 360°
2026-05-06 02:13 39.76932 -104.68829 7225 ft 170 kts 359°
2026-05-06 02:13 39.78071 -104.68816 7007 ft 158 kts
2026-05-06 02:14 39.79138 -104.68804 6808 ft 150 kts 360°
2026-05-06 02:14 39.80169 -104.68791 6615 ft 148 kts 359°
2026-05-06 02:14 39.81193 -104.68778 6417 ft 146 kts 360°
2026-05-06 02:14 39.82198 -104.68765 6231 ft 145 kts 360°
2026-05-06 02:15 39.83205 -104.68755 6030 ft 144 kts 360°
2026-05-06 02:15 39.84208 -104.68745 5841 ft 144 kts 360°
2026-05-06 02:15 39.85208 -104.68732 5650 ft 144 kts
2026-05-06 02:15 39.86213 -104.68720 5456 ft 144 kts 360°
2026-05-06 02:16 39.87194 -104.68713 5364 ft 135 kts
2026-05-06 02:16 39.87960 -104.68701 5369 ft 85 kts
2026-05-06 02:16 39.88388 -104.68684 5365 ft 48 kts 11°
2026-05-06 02:16 39.88646 -104.68507 5366 ft 24 kts 84°
2026-05-06 02:17 39.88606 -104.68472 5366 ft 8 kts 194°
2026-05-06 02:17 39.88524 -104.68479 5366 ft 15 kts 180°
2026-05-06 02:17 39.88397 -104.68479 5366 ft 21 kts 181°
2026-05-06 02:17 39.88228 -104.68482 5366 ft 27 kts 180°
2026-05-06 02:18 39.88034 -104.68484 5365 ft 25 kts 180°
2026-05-06 02:18 39.87882 -104.68485 5365 ft 21 kts 180°
2026-05-06 02:18 39.87712 -104.68488 5364 ft 27 kts 181°
2026-05-06 02:18 39.87517 -104.68488 5363 ft 29 kts 179°
2026-05-06 02:19 39.87336 -104.68492 5366 ft 17 kts 181°
2026-05-06 02:19 39.87199 -104.68495 5366 ft 23 kts 180°
2026-05-06 02:19 39.87024 -104.68497 5365 ft 25 kts 180°
2026-05-06 02:19 39.86889 -104.68498 5365 ft 22 kts 180°
2026-05-06 02:20 39.86512 -104.68502 5366 ft 32 kts 180°
2026-05-06 02:20 39.86279 -104.68505 5364 ft 35 kts 181°
2026-05-06 02:20 39.86079 -104.68507 5363 ft 22 kts 180°
2026-05-06 02:21 39.85910 -104.68510 5363 ft 27 kts 180°
2026-05-06 02:21 39.85725 -104.68506 5365 ft 19 kts 167°
2026-05-06 02:21 39.85687 -104.68348 5366 ft 22 kts 90°
2026-05-06 02:21 39.85677 -104.68168 5366 ft 16 kts 106°
2026-05-06 02:22 39.85668 -104.68065 5365 ft 7 kts 85°
2026-05-06 02:22 39.85671 -104.68018 5366 ft 0 kts 86°
2026-05-06 02:22 39.85673 -104.68015 5366 ft 0 kts 67°
2026-05-06 02:22 39.85681 -104.68011 5366 ft 1 kts 11°
2026-05-06 02:23 39.85691 -104.68021 5366 ft 2 kts 296°
2026-05-06 02:23 39.85702 -104.68058 5366 ft 7 kts 291°
2026-05-06 02:23 39.85747 -104.68115 5366 ft 13 kts 355°
2026-05-06 02:23 39.85796 -104.68114 5364 ft 2 kts 360°
2026-05-06 02:24 39.85802 -104.68114 5366 ft 0 kts 360°